FW3322 Weather Reports


Display with metric or nautical units.
time (UTC)temp
F
wind
direction
speed
MPH
gust
MPH
rain 1hr
in
rain 24hr
in
rain mn
in
humidity
%
barometer
mb
20260503210010 80 211 4.0 12.0 0.00 0.00 0.00 55 1013.3
20260503204507 80 206 6.0 14.0 0.00 0.00 0.00 54 1013.5
20260503203010 80 114 4.0 12.0 0.00 0.00 0.00 54 1013.9
20260503201502 80 208 3.0 11.0 0.00 0.00 0.00 55 1014.0
20260503200105 79 209 5.0 12.0 0.00 0.00 0.00 55 1014.2
20260503194556 79 277 3.0 11.0 0.00 0.00 0.00 57 1014.4
20260503193106 79 221 5.0 11.0 0.00 0.00 0.00 56 1014.5
20260503191551 78 184 4.0 13.0 0.00 0.00 0.00 55 1014.8
20260503190048 78 145 5.0 11.0 0.00 0.00 0.00 55 1015.0
20260503184555 77 171 4.0 13.0 0.00 0.00 0.00 57 1015.3
20260503183054 77 134 6.0 13.0 0.00 0.00 0.00 56 1015.6
20260503181540 76 250 4.0 11.0 0.00 0.00 0.00 56 1015.9
20260503180037 76 208 5.0 12.0 0.00 0.00 0.00 57 1016.3
20260503174535 75 183 4.0 11.0 0.00 0.00 0.00 56 1016.6
20260503173030 74 126 4.0 13.0 0.00 0.00 0.00 58 1016.7
20260503171526 73 154 5.0 11.0 0.00 0.00 0.00 58 1016.8
20260503081559 41 33 0.0 0.0 0.00 0.00 0.00 94 1019.9
20260503071529 42 33 0.0 0.0 0.00 0.00 0.00 94 1020.3
20260503054518 43 300 0.0 0.0 0.00 0.00 0.00 92 1020.8
20260503053016 43 300 0.0 0.0 0.00 0.00 0.00 91 1020.8
20260503051512 44 300 0.0 0.0 0.00 0.00 0.00 90 1021.0
20260503050026 44 300 0.0 0.0 0.00 0.00 0.00 89 1021.0
20260503044510 44 300 0.0 0.0 0.00 0.00 0.00 90 1021.1
20260503043011 45 300 0.0 0.0 0.00 0.00 0.00 89 1021.1
20260503041509 45 300 0.0 0.0 0.00 0.00 0.00 87 1021.1
20260503040007 46 300 0.0 0.0 0.00 0.00 0.00 87 1021.1
20260503034507 46 300 0.0 0.0 0.00 0.00 0.00 85 1021.2
20260503033006 47 300 0.0 0.0 0.00 0.00 0.00 83 1021.2
20260503031506 48 300 0.0 0.0 0.00 0.00 0.00 82 1021.2
20260503030007 49 300 0.0 0.0 0.00 0.00 0.00 80 1021.2
20260503024508 49 300 0.0 0.0 0.00 0.00 0.00 78 1021.1
20260503023004 50 300 0.0 0.0 0.00 0.00 0.00 75 1021.0
20260503021507 52 300 0.0 0.0 0.00 0.00 0.00 73 1020.8
20260503020004 53 300 0.0 0.0 0.00 0.00 0.00 71 1020.7
20260503014503 54 300 0.0 0.0 0.00 0.00 0.00 68 1020.6
20260503013007 56 300 0.0 0.0 0.00 0.00 0.00 64 1020.5
20260503011503 58 300 0.0 0.0 0.00 0.00 0.00 59 1020.4
20260503010002 61 300 0.0 0.0 0.00 0.00 0.00 56 1020.4
20260503004501 63 300 0.0 0.0 0.00 0.00 0.00 50 1020.5
20260503003001 65 281 0.0 3.0 0.00 0.00 0.00 44 1020.4
20260503001604 65 277 1.0 4.0 0.00 0.00 0.00 43 1020.4
20260503000108 66 197 1.0 4.0 0.00 0.00 0.00 42 1020.5
20260502234615 65 11 1.0 7.0 0.00 0.00 0.00 42 1020.5
20260502233109 66 218 3.0 8.0 0.00 0.00 0.00 42 1020.4
20260502231611 66 322 2.0 6.0 0.00 0.00 0.00 42 1020.5
20260502230057 66 294 3.0 7.0 0.00 0.00 0.00 42 1020.7
20260502224555 66 280 1.0 6.0 0.00 0.00 0.00 42 1020.6
20260502223055 66 220 2.0 8.0 0.00 0.00 0.00 43 1020.7
20260502221602 66 304 4.0 9.0 0.00 0.00 0.00 43 1020.6
20260502220051 65 15 3.0 8.0 0.00 0.00 0.00 43 1020.8
20260502214554 65 18 1.0 7.0 0.00 0.00 0.00 44 1020.9
20260502213053 65 298 3.0 10.0 0.00 0.00 0.00 43 1021.0
20260502211549 65 284 6.0 11.0 0.00 0.00 0.00 42 1021.1